DLH1711 LDDU-EDDM

Flight info

Callsign DLH1711
Flight time 1h 14m
Altitude 36000
Route AMUGO DCT SIRMI DCT DARZA DCT LUMUS DCT RASTA DCT REDBU Q112 NAPSA NAPSA1B
Aircraft A321/M-SDE3FGHIRWY/LB1

Departure

Time 2026-05-07 14:30
Airport Dubrovnik Ruđer Bošković Airport (LDDU)

Arrival

Time 2026-05-07 15:45
Airport Munich Airport (EDDM)
Time Latitude Longitude Altitude Speed Heading
2026-05-07 14:07 42.56025 18.26466 534 ft 0 kts 208°
2026-05-07 14:20 42.56032 18.26471 534 ft 4 kts 208°
2026-05-07 14:20 42.56055 18.26489 534 ft 4 kts 226°
2026-05-07 14:20 42.56066 18.26518 534 ft 4 kts 275°
2026-05-07 14:20 42.56061 18.26543 534 ft 1 kts 298°
2026-05-07 14:21 42.56059 18.26547 534 ft 0 kts 298°
2026-05-07 14:23 42.56063 18.26538 534 ft 2 kts 298°
2026-05-07 14:23 42.56073 18.26512 534 ft 4 kts 298°
2026-05-07 14:24 42.56090 18.26471 534 ft 6 kts 298°
2026-05-07 14:24 42.56112 18.26414 534 ft 8 kts 298°
2026-05-07 14:24 42.56144 18.26335 534 ft 11 kts 298°
2026-05-07 14:24 42.56186 18.26232 534 ft 14 kts 298°
2026-05-07 14:25 42.56236 18.26106 534 ft 16 kts 298°
2026-05-07 14:25 42.56294 18.25957 534 ft 19 kts 298°
2026-05-07 14:25 42.56360 18.25789 534 ft 21 kts 298°
2026-05-07 14:25 42.56434 18.25602 534 ft 24 kts 298°
2026-05-07 14:26 42.56515 18.25398 534 ft 26 kts 298°
2026-05-07 14:26 42.56603 18.25178 534 ft 27 kts 298°
2026-05-07 14:26 42.56696 18.24945 534 ft 28 kts 298°
2026-05-07 14:26 42.56777 18.24740 534 ft 10 kts 298°
2026-05-07 14:27 42.56801 18.24698 534 ft 0 kts 321°
2026-05-07 14:27 42.56802 18.24697 534 ft 0 kts 321°
2026-05-07 14:27 42.56806 18.24693 534 ft 2 kts 321°
2026-05-07 14:27 42.56824 18.24680 534 ft 5 kts 336°
2026-05-07 14:28 42.56869 18.24675 534 ft 8 kts 11°
2026-05-07 14:28 42.56921 18.24731 533 ft 11 kts 54°
2026-05-07 14:28 42.56928 18.24829 533 ft 7 kts 115°
2026-05-07 14:28 42.56926 18.24833 533 ft 0 kts 115°
2026-05-07 14:29 42.56922 18.24846 533 ft 7 kts 116°
2026-05-07 14:29 42.56780 18.25204 532 ft 83 kts 119°
2026-05-07 14:30 42.56390 18.26184 534 ft 150 kts 118°
2026-05-07 14:30 42.55864 18.27522 1081 ft 159 kts 118°
2026-05-07 14:30 42.55348 18.28874 1801 ft 164 kts 118°
2026-05-07 14:30 42.54792 18.30309 2244 ft 185 kts 118°
2026-05-07 14:31 42.54128 18.31938 2536 ft 207 kts 124°
2026-05-07 14:31 42.53067 18.33266 3143 ft 216 kts 153°
2026-05-07 14:31 42.51573 18.33696 3752 ft 225 kts 185°
2026-05-07 14:31 42.50093 18.33027 4552 ft 227 kts 212°
2026-05-07 14:32 42.48868 18.31688 5401 ft 227 kts 220°
2026-05-07 14:32 42.47596 18.30426 6199 ft 227 kts 207°
2026-05-07 14:32 42.46114 18.29683 7015 ft 228 kts 195°
2026-05-07 14:32 42.44579 18.29211 7768 ft 230 kts 192°
2026-05-07 14:33 42.42953 18.28786 8265 ft 250 kts 192°
2026-05-07 14:33 42.41267 18.27930 8554 ft 272 kts 216°
2026-05-07 14:33 42.40009 18.26005 9133 ft 279 kts 244°
2026-05-07 14:33 42.39578 18.23454 9816 ft 283 kts 271°
2026-05-07 14:34 42.40002 18.20839 10522 ft 288 kts 287°
2026-05-07 14:34 42.40614 18.18246 11253 ft 290 kts 287°
2026-05-07 14:34 42.41237 18.15635 11975 ft 293 kts 287°
2026-05-07 14:34 42.41862 18.12999 12694 ft 295 kts 286°
2026-05-07 14:35 42.42495 18.10302 13114 ft 311 kts 286°
2026-05-07 14:35 42.43171 18.07415 13246 ft 332 kts 286°
2026-05-07 14:35 42.43885 18.04344 13388 ft 352 kts 286°
2026-05-07 14:35 42.44626 18.01131 13817 ft 361 kts 286°
2026-05-07 14:36 42.45374 17.97873 14415 ft 365 kts 286°
2026-05-07 14:36 42.46135 17.94577 14990 ft 368 kts 286°
2026-05-07 14:36 42.46904 17.91249 15553 ft 372 kts 286°
2026-05-07 14:36 42.47678 17.87894 16121 ft 375 kts 286°
2026-05-07 14:37 42.48458 17.84505 16684 ft 378 kts 286°
2026-05-07 14:37 42.50032 17.77643 17789 ft 384 kts 286°
2026-05-07 14:37 42.50830 17.74169 18299 ft 388 kts 286°
2026-05-07 14:38 42.51634 17.70669 18798 ft 390 kts 286°
2026-05-07 14:38 42.52438 17.67144 19285 ft 393 kts 285°
2026-05-07 14:38 42.53316 17.63631 19752 ft 396 kts 292°
2026-05-07 14:38 42.54643 17.60340 20238 ft 401 kts 303°
2026-05-07 14:39 42.56456 17.57446 20682 ft 406 kts 315°
2026-05-07 14:39 42.58693 17.55092 21106 ft 411 kts 327°
2026-05-07 14:39 42.61191 17.53156 21536 ft 414 kts 329°
2026-05-07 14:39 42.63705 17.51222 21966 ft 417 kts 328°
2026-05-07 14:40 42.66228 17.49266 22384 ft 419 kts 328°
2026-05-07 14:40 42.68767 17.47287 22797 ft 422 kts 328°
2026-05-07 14:40 42.71321 17.45292 23201 ft 424 kts 328°
2026-05-07 14:40 42.73887 17.43286 23601 ft 427 kts 328°
2026-05-07 14:41 42.76470 17.41270 23988 ft 429 kts 328°
2026-05-07 14:41 42.79069 17.39241 24375 ft 432 kts 328°
2026-05-07 14:41 42.81683 17.37201 24764 ft 434 kts 328°
2026-05-07 14:41 42.84309 17.35150 25131 ft 436 kts 328°
2026-05-07 14:42 42.86949 17.33087 25482 ft 439 kts 328°
2026-05-07 14:42 42.89568 17.31038 25833 ft 441 kts 328°
2026-05-07 14:42 42.92237 17.28948 26191 ft 444 kts 328°
2026-05-07 14:42 42.94916 17.26846 26540 ft 445 kts 328°
2026-05-07 14:43 42.97606 17.24734 26886 ft 447 kts 328°
2026-05-07 14:43 43.00310 17.22608 27232 ft 449 kts 328°
2026-05-07 14:43 43.03022 17.20471 27548 ft 451 kts 328°
2026-05-07 14:43 43.05747 17.18320 27865 ft 453 kts 328°
2026-05-07 14:44 43.08489 17.16156 28178 ft 455 kts 328°
2026-05-07 14:44 43.11238 17.13990 28475 ft 457 kts 328°
2026-05-07 14:44 43.13998 17.11809 28761 ft 459 kts 328°
2026-05-07 14:44 43.16768 17.09617 29031 ft 461 kts 328°
2026-05-07 14:45 43.19552 17.07420 29294 ft 463 kts 328°
2026-05-07 14:45 43.21398 17.05964 29461 ft 464 kts 328°
2026-05-07 14:45 43.25141 17.03001 29792 ft 465 kts 328°
2026-05-07 14:45 43.27937 17.00777 30117 ft 464 kts 328°
2026-05-07 14:46 43.30729 16.98555 30447 ft 463 kts 328°
2026-05-07 14:46 43.32571 16.97089 30665 ft 462 kts 328°
2026-05-07 14:46 43.35352 16.94874 30994 ft 461 kts 327°
2026-05-07 14:46 43.38120 16.92667 31326 ft 460 kts 327°
2026-05-07 14:47 43.40883 16.90459 31657 ft 458 kts 327°
2026-05-07 14:47 43.43637 16.88253 31998 ft 457 kts 327°
2026-05-07 14:47 43.46379 16.86053 32321 ft 456 kts 327°
2026-05-07 14:47 43.49117 16.83856 32650 ft 455 kts 327°
2026-05-07 14:48 43.51848 16.81661 32964 ft 454 kts 327°
2026-05-07 14:48 43.54574 16.79470 33295 ft 453 kts 327°
2026-05-07 14:48 43.57291 16.77289 33606 ft 451 kts 327°
2026-05-07 14:48 43.60000 16.75113 33908 ft 450 kts 327°
2026-05-07 14:49 43.62703 16.72939 34191 ft 449 kts 327°
2026-05-07 14:49 43.65399 16.70765 34463 ft 448 kts 327°
2026-05-07 14:49 43.68091 16.68590 34716 ft 448 kts 327°
2026-05-07 14:49 43.70782 16.66416 34969 ft 448 kts 327°
2026-05-07 14:50 43.73471 16.64245 35217 ft 448 kts 327°
2026-05-07 14:50 43.76158 16.62071 35461 ft 447 kts 327°
2026-05-07 14:50 43.78847 16.59894 35696 ft 447 kts 327°
2026-05-07 14:50 43.81531 16.57715 35934 ft 447 kts 327°
2026-05-07 14:51 43.86893 16.53357 36061 ft 446 kts 327°
2026-05-07 14:51 43.92235 16.49013 36050 ft 445 kts 327°
2026-05-07 14:52 43.97580 16.44660 36055 ft 445 kts 327°
2026-05-07 14:52 44.02921 16.40291 36057 ft 446 kts 326°
2026-05-07 14:53 44.08263 16.35902 36059 ft 446 kts 326°
2026-05-07 14:53 44.13616 16.31508 36059 ft 447 kts 326°
2026-05-07 14:54 44.18889 16.26940 36059 ft 446 kts 323°
2026-05-07 14:54 44.24004 16.22062 36063 ft 445 kts 322°
2026-05-07 14:55 44.29091 16.17141 36057 ft 445 kts 322°
2026-05-07 14:55 44.34216 16.12266 36060 ft 447 kts 323°
2026-05-07 14:56 44.39369 16.07409 36055 ft 447 kts 323°
2026-05-07 14:56 44.44521 16.02542 36064 ft 447 kts 323°
2026-05-07 14:57 44.49640 15.97697 36063 ft 447 kts 323°
2026-05-07 14:57 44.54782 15.92808 36062 ft 447 kts 322°
2026-05-07 14:58 44.59929 15.87893 36057 ft 447 kts 322°
2026-05-07 14:58 44.65076 15.82976 36058 ft 447 kts 322°
2026-05-07 14:59 44.70220 15.78047 36053 ft 448 kts 322°
2026-05-07 14:59 44.75370 15.73107 36056 ft 448 kts 322°
2026-05-07 15:00 44.80519 15.68162 36052 ft 448 kts 322°
2026-05-07 15:00 44.85665 15.63199 36051 ft 448 kts 322°
2026-05-07 15:01 44.90809 15.58219 36034 ft 449 kts 322°
2026-05-07 15:01 44.95956 15.53228 36034 ft 449 kts 322°
2026-05-07 15:02 45.01105 15.48235 36036 ft 449 kts 322°
2026-05-07 15:02 45.06258 15.43232 36037 ft 449 kts 322°
2026-05-07 15:03 45.11411 15.38213 36036 ft 450 kts 322°
2026-05-07 15:03 45.16564 15.33177 36034 ft 450 kts 322°
2026-05-07 15:04 45.21712 15.28134 36033 ft 450 kts 322°
2026-05-07 15:04 45.26868 15.23069 36029 ft 451 kts 322°
2026-05-07 15:05 45.32025 15.17993 36029 ft 451 kts 322°
2026-05-07 15:05 45.37188 15.12908 36027 ft 451 kts 322°
2026-05-07 15:06 45.42341 15.07830 36033 ft 450 kts 322°
2026-05-07 15:06 45.47469 15.02740 36034 ft 449 kts 321°
2026-05-07 15:07 45.52851 14.98174 36031 ft 452 kts 328°
2026-05-07 15:07 45.58404 14.93963 36028 ft 452 kts 328°
2026-05-07 15:08 45.63947 14.89731 36024 ft 451 kts 328°
2026-05-07 15:08 45.69475 14.85488 36019 ft 451 kts 328°
2026-05-07 15:09 45.75000 14.81243 36011 ft 451 kts 328°
2026-05-07 15:09 45.80539 14.77005 36008 ft 452 kts 328°
2026-05-07 15:10 45.86080 14.72742 36000 ft 452 kts 328°
2026-05-07 15:10 45.91611 14.68461 36001 ft 451 kts 328°
2026-05-07 15:11 45.97106 14.64213 35989 ft 452 kts 328°
2026-05-07 15:11 46.02635 14.59926 35978 ft 452 kts 328°
2026-05-07 15:12 46.08171 14.55612 35970 ft 453 kts 328°
2026-05-07 15:12 46.13717 14.51294 35970 ft 454 kts 328°
2026-05-07 15:13 46.19274 14.46966 35972 ft 454 kts 328°
2026-05-07 15:13 46.24825 14.42618 35968 ft 454 kts 328°
2026-05-07 15:14 46.30379 14.38256 35967 ft 454 kts 327°
2026-05-07 15:14 46.35933 14.33882 35967 ft 455 kts 328°
2026-05-07 15:15 46.41490 14.29505 35967 ft 455 kts 328°
2026-05-07 15:15 46.47043 14.25122 35961 ft 454 kts 328°
2026-05-07 15:16 46.52585 14.20738 35952 ft 454 kts 327°
2026-05-07 15:16 46.58130 14.16339 35945 ft 454 kts 327°
2026-05-07 15:17 46.63638 14.11848 35944 ft 454 kts 326°
2026-05-07 15:17 46.69089 14.07208 35944 ft 454 kts 326°
2026-05-07 15:18 46.74542 14.02552 35941 ft 455 kts 326°
2026-05-07 15:18 46.80013 13.97917 35945 ft 455 kts 326°
2026-05-07 15:19 46.85490 13.93288 35951 ft 455 kts 326°
2026-05-07 15:19 46.90964 13.88637 35955 ft 455 kts 326°
2026-05-07 15:20 46.96438 13.83966 35955 ft 455 kts 326°
2026-05-07 15:20 47.01913 13.79293 35957 ft 455 kts 326°
2026-05-07 15:21 47.07383 13.74607 35961 ft 455 kts 326°
2026-05-07 15:21 47.12819 13.69940 35970 ft 456 kts 326°
2026-05-07 15:22 47.18304 13.65229 35976 ft 456 kts 326°
2026-05-07 15:22 47.23775 13.60511 35979 ft 456 kts 326°
2026-05-07 15:23 47.29236 13.55784 35430 ft 454 kts 326°
2026-05-07 15:23 47.31959 13.53424 34702 ft 454 kts 326°
2026-05-07 15:23 47.34685 13.51061 33991 ft 455 kts 326°
2026-05-07 15:24 47.37416 13.48695 33285 ft 455 kts 326°
2026-05-07 15:24 47.40150 13.46329 32530 ft 456 kts 326°
2026-05-07 15:24 47.42891 13.43950 31734 ft 457 kts 326°
2026-05-07 15:24 47.45630 13.41562 30883 ft 459 kts 326°
2026-05-07 15:25 47.48386 13.39151 30022 ft 460 kts 326°
2026-05-07 15:25 47.50985 13.36422 29102 ft 458 kts 317°
2026-05-07 15:25 47.53445 13.33439 28403 ft 455 kts 317°
2026-05-07 15:25 47.55882 13.30483 27734 ft 450 kts 318°
2026-05-07 15:26 47.58292 13.27561 27120 ft 445 kts 318°
2026-05-07 15:26 47.60674 13.24672 26487 ft 440 kts 318°
2026-05-07 15:26 47.63029 13.21811 25835 ft 436 kts 318°
2026-05-07 15:26 47.65359 13.18971 25188 ft 431 kts 318°
2026-05-07 15:27 47.67661 13.16159 24541 ft 426 kts 318°
2026-05-07 15:27 47.69939 13.13377 23892 ft 422 kts 319°
2026-05-07 15:27 47.72194 13.10626 23236 ft 418 kts 319°
2026-05-07 15:27 47.74425 13.07902 22584 ft 413 kts 319°
2026-05-07 15:28 47.76630 13.05199 21932 ft 409 kts 319°
2026-05-07 15:28 47.78814 13.02516 21286 ft 405 kts 319°
2026-05-07 15:28 47.80973 12.99861 20645 ft 401 kts 319°
2026-05-07 15:28 47.83113 12.97229 20014 ft 397 kts 319°
2026-05-07 15:29 47.85231 12.94627 19406 ft 393 kts 319°
2026-05-07 15:29 47.87328 12.92046 18778 ft 389 kts 319°
2026-05-07 15:29 47.89401 12.89490 18137 ft 385 kts 319°
2026-05-07 15:29 47.91454 12.86953 17517 ft 381 kts 319°
2026-05-07 15:30 47.93485 12.84438 16892 ft 378 kts 319°
2026-05-07 15:30 47.95372 12.81755 16256 ft 373 kts 309°
2026-05-07 15:30 47.96846 12.78680 15632 ft 367 kts 299°
2026-05-07 15:30 47.98154 12.75370 14947 ft 364 kts 299°
2026-05-07 15:31 47.99441 12.72130 14294 ft 361 kts 299°
2026-05-07 15:31 48.00699 12.68965 13662 ft 358 kts 299°
2026-05-07 15:31 48.01962 12.65790 13003 ft 354 kts 300°
2026-05-07 15:31 48.03217 12.62636 12497 ft 352 kts 300°
2026-05-07 15:32 48.04467 12.59484 12099 ft 352 kts 300°
2026-05-07 15:32 48.05713 12.56340 11664 ft 351 kts 299°
2026-05-07 15:32 48.06953 12.53217 11239 ft 348 kts 300°
2026-05-07 15:32 48.08186 12.50136 10815 ft 341 kts 300°
2026-05-07 15:33 48.09392 12.47134 10389 ft 332 kts 300°
2026-05-07 15:33 48.10565 12.44208 10065 ft 322 kts 300°
2026-05-07 15:33 48.11313 12.42341 10010 ft 308 kts 300°
2026-05-07 15:33 48.12379 12.39674 10019 ft 290 kts 300°
2026-05-07 15:34 48.13248 12.37006 10024 ft 285 kts 285°
2026-05-07 15:34 48.13579 12.34094 10025 ft 284 kts 277°
2026-05-07 15:34 48.13851 12.31177 9926 ft 281 kts 280°
2026-05-07 15:34 48.14611 12.28516 9518 ft 280 kts 307°
2026-05-07 15:35 48.16098 12.26658 9095 ft 281 kts 333°
2026-05-07 15:35 48.17996 12.26015 8691 ft 283 kts
2026-05-07 15:35 48.19935 12.26525 8271 ft 284 kts 13°
2026-05-07 15:35 48.21835 12.27301 7870 ft 282 kts 14°
2026-05-07 15:36 48.23717 12.28098 7467 ft 280 kts 14°
2026-05-07 15:36 48.25592 12.28895 7088 ft 279 kts 14°
2026-05-07 15:36 48.27451 12.29687 6708 ft 277 kts 14°
2026-05-07 15:36 48.29292 12.30477 6325 ft 275 kts 14°
2026-05-07 15:37 48.31138 12.31127 6026 ft 269 kts
2026-05-07 15:37 48.32952 12.30623 6002 ft 268 kts 333°
2026-05-07 15:37 48.34386 12.28884 6007 ft 267 kts 305°
2026-05-07 15:37 48.35300 12.26461 6007 ft 268 kts 296°
2026-05-07 15:38 48.36103 12.23943 6004 ft 267 kts 295°
2026-05-07 15:38 48.36885 12.21424 5997 ft 262 kts 292°
2026-05-07 15:38 48.37285 12.18925 5998 ft 232 kts 271°
2026-05-07 15:38 48.37175 12.16680 6023 ft 207 kts 264°
2026-05-07 15:39 48.37026 12.14593 5872 ft 194 kts 264°
2026-05-07 15:39 48.36885 12.12621 5634 ft 186 kts 264°
2026-05-07 15:39 48.36746 12.10722 5398 ft 180 kts 264°
2026-05-07 15:39 48.36610 12.08867 5161 ft 178 kts 264°
2026-05-07 15:40 48.36473 12.07028 4927 ft 177 kts 264°
2026-05-07 15:40 48.36337 12.05192 4685 ft 177 kts 264°
2026-05-07 15:40 48.36202 12.03375 4465 ft 176 kts 264°
2026-05-07 15:40 48.36066 12.01544 4229 ft 176 kts 264°
2026-05-07 15:41 48.35928 11.99716 3996 ft 176 kts 264°
2026-05-07 15:41 48.35794 11.97895 3762 ft 176 kts 264°
2026-05-07 15:41 48.35658 11.96076 3530 ft 175 kts 264°
2026-05-07 15:41 48.35522 11.94264 3302 ft 172 kts 264°
2026-05-07 15:42 48.35394 11.92566 3085 ft 157 kts 264°
2026-05-07 15:42 48.35275 11.90973 2878 ft 149 kts 264°
2026-05-07 15:42 48.35161 11.89463 2681 ft 144 kts 265°
2026-05-07 15:42 48.35048 11.87978 2493 ft 142 kts 265°
2026-05-07 15:43 48.34935 11.86491 2315 ft 144 kts 265°
2026-05-07 15:43 48.34832 11.85012 2126 ft 143 kts 265°
2026-05-07 15:43 48.34715 11.83529 1925 ft 144 kts 264°
2026-05-07 15:43 48.34595 11.82043 1738 ft 143 kts 265°
2026-05-07 15:44 48.34482 11.80558 1531 ft 143 kts 264°
2026-05-07 15:44 48.34386 11.79167 1486 ft 122 kts 264°
2026-05-07 15:44 48.34304 11.78155 1480 ft 73 kts 263°
2026-05-07 15:44 48.34260 11.77565 1476 ft 51 kts 264°
2026-05-07 15:45 48.34257 11.77281 1475 ft 21 kts 284°
2026-05-07 15:45 48.34311 11.77070 1477 ft 22 kts 294°
2026-05-07 15:45 48.34375 11.76852 1480 ft 24 kts 294°
2026-05-07 15:45 48.34444 11.76701 1485 ft 15 kts 343°
2026-05-07 15:46 48.34584 11.76854 1483 ft 17 kts 83°
2026-05-07 15:46 48.34599 11.77044 1480 ft 19 kts 83°
2026-05-07 15:46 48.34617 11.77254 1476 ft 21 kts 83°
2026-05-07 15:47 48.34633 11.77485 1480 ft 23 kts 84°
2026-05-07 15:47 48.34651 11.77734 1478 ft 25 kts 83°
2026-05-07 15:47 48.34673 11.78000 1485 ft 26 kts 83°
2026-05-07 15:47 48.34696 11.78281 1472 ft 28 kts 83°
2026-05-07 15:48 48.34720 11.78575 1482 ft 29 kts 84°
2026-05-07 15:48 48.34742 11.78883 1486 ft 30 kts 84°
2026-05-07 15:48 48.34763 11.79176 1486 ft 20 kts 83°
2026-05-07 15:48 48.34777 11.79360 1486 ft 12 kts 83°
2026-05-07 15:49 48.34788 11.79487 1486 ft 12 kts 83°
2026-05-07 15:49 48.34800 11.79556 1480 ft 4 kts 42°
2026-05-07 15:49 48.34834 11.79558 1475 ft 6 kts 354°
2026-05-07 15:49 48.34885 11.79550 1476 ft 8 kts 354°
2026-05-07 15:50 48.34951 11.79540 1486 ft 11 kts 356°
2026-05-07 15:50 48.35005 11.79530 1482 ft 5 kts 351°
2026-05-07 15:50 48.35025 11.79501 1486 ft 4 kts 276°
2026-05-07 15:50 48.35021 11.79443 1486 ft 7 kts 264°
2026-05-07 15:51 48.35016 11.79379 1476 ft 2 kts 263°
2026-05-07 15:51 48.35016 11.79374 1485 ft 0 kts 263°